Jonesville, VA

8:12 PM EDT on July 23, 2017 (GMT -0400)
Jonesville

Weather History for K0VG - November, 2012

Change the Weather History Date:

Friday, November 9, 2012

  Actual Average (KLNP) Record (KLNP)
Temperature  
Mean Temperature 42 °F -  
Max Temperature 60 °F 52 °F 71 °F (2005)
Min Temperature 24 °F 35 °F 26 °F (1996)
Degree Days  
Heating Degree Days 23    
Moisture  
Dew Point 31 °F    
Average Humidity 75    
Maximum Humidity 100    
Minimum Humidity 34    
Precipitation  
Precipitation 0.00 in - - ()
Sea Level Pressure  
Sea Level Pressure 30.27 in    
Wind  
Wind Speed 0 mph (WSW)    
Max Wind Speed 6 mph    
Max Gust Speed -    
Visibility 9 miles    
Events      
Averages and records for this station are not official NWS values.
T = Trace of Precipitation, MM = Missing Value Source: NWS Daily Summary

Daily Weather History Graph

Daily Weather History Graph

Search for Another Location

Airport or City:

Trip Planner

Search our weather history database for the weather conditions in past years. The results will help you decide how hot, cold, wet, or windy it might be!

Date:

Astronomy

Nov. 09, 2012 Rise Set
Actual Time 7:05 AM EST 5:28 PM EST
Civil Twilight 6:37 AM EST 5:55 PM EST
Nautical Twilight 6:06 AM EST 6:26 PM EST
Astronomical Twilight 5:36 AM EST 6:56 PM EST
Moon 2:10 AM EST (11/9) 2:34 PM EST (11/9)
Length of Visible Light 11h 17m
Length of Day
10h 23m
Waning Crescent, 23% of the Moon is Illuminated
Nov 9
Waning Crescent
Nov 13
New
Nov 20
First Quarter
Nov 28
Full
Dec 6
Last Quarter

Hourly Weather History & Observations

Time (EST) Temp. Windchill Dew Point Humidity Pressure Visibility Wind Dir Wind Speed Gust Speed Precip Events Conditions
12:15 AM 30.2 °F - 30.2 °F 100% 30.22 in 9.0 mi Calm Calm - N/A   Unknown
12:35 AM 30.2 °F - 30.2 °F 100% 30.23 in 8.0 mi Calm Calm - N/A   Unknown
12:55 AM 28.4 °F - 28.4 °F 100% 30.24 in 7.0 mi Calm Calm - N/A   Unknown
1:15 AM 28.4 °F - 28.4 °F 100% 30.24 in 7.0 mi Calm Calm - N/A   Unknown
1:35 AM 28.4 °F - 28.4 °F 100% 30.24 in 6.0 mi Calm Calm - N/A   Mist
1:55 AM 28.4 °F - 28.4 °F 100% 30.24 in 6.0 mi Calm Calm - N/A   Mist
2:15 AM 28.4 °F - 28.4 °F 100% 30.23 in 7.0 mi Calm Calm - N/A   Unknown
2:35 AM 28.4 °F - 26.6 °F 93% 30.24 in 8.0 mi Calm Calm - N/A   Unknown
2:55 AM 26.6 °F - 26.6 °F 100% 30.24 in 8.0 mi Calm Calm - N/A   Unknown
3:15 AM 28.4 °F - 28.4 °F 100% 30.24 in 8.0 mi Calm Calm - N/A   Unknown
3:35 AM 28.4 °F - 26.6 °F 93% 30.25 in 10.0 mi Calm Calm - N/A   Unknown
3:55 AM 26.6 °F - 24.8 °F 93% 30.25 in 8.0 mi Calm Calm - N/A   Unknown
4:15 AM 26.6 °F - 26.6 °F 100% 30.26 in 7.0 mi Calm Calm - N/A   Unknown
4:35 AM 26.6 °F - 26.6 °F 100% 30.26 in 8.0 mi Calm Calm - N/A   Unknown
4:55 AM 26.6 °F - 26.6 °F 100% 30.27 in 7.0 mi Calm Calm - N/A   Unknown
5:15 AM 24.8 °F - 24.8 °F 100% 30.27 in 7.0 mi Calm Calm - N/A   Unknown
5:35 AM 24.8 °F - 24.8 °F 100% 30.27 in 8.0 mi Calm Calm - N/A   Unknown
5:55 AM 26.6 °F - 26.6 °F 100% 30.28 in 8.0 mi Calm Calm - N/A   Unknown
6:15 AM 26.6 °F - 26.6 °F 100% 30.28 in 8.0 mi Calm Calm - N/A   Unknown
6:35 AM 26.6 °F - 24.8 °F 93% 30.29 in 8.0 mi Calm Calm - N/A   Unknown
6:55 AM 24.8 °F - 24.8 °F 100% 30.29 in 10.0 mi Calm Calm - N/A   Unknown
7:15 AM 24.8 °F - 24.8 °F 100% 30.30 in 8.0 mi Calm Calm - N/A   Unknown
7:35 AM 26.6 °F - 26.6 °F 100% 30.31 in 7.0 mi Calm Calm - N/A   Unknown
7:55 AM 28.4 °F - 26.6 °F 93% 30.32 in 7.0 mi Calm Calm - N/A   Clear
8:15 AM 30.2 °F - 28.4 °F 93% 30.33 in 8.0 mi Calm Calm - N/A   Clear
8:35 AM 32.0 °F - 30.2 °F 93% 30.33 in 9.0 mi Calm Calm - N/A   Clear
8:55 AM 32.0 °F - 30.2 °F 93% 30.34 in 10.0 mi Calm Calm - N/A   Clear
9:15 AM 35.6 °F - 32.0 °F 87% 30.33 in 10.0 mi Calm Calm - N/A   Clear
9:35 AM 37.4 °F - 32.0 °F 81% 30.34 in 10.0 mi Calm Calm - N/A   Clear
9:55 AM 39.2 °F - 32.0 °F 75% 30.34 in 10.0 mi Calm Calm - N/A   Clear
10:15 AM 42.8 °F - 32.0 °F 66% 30.34 in 10.0 mi Calm Calm - N/A   Clear
10:35 AM 46.4 °F - 33.8 °F 62% 30.34 in 10.0 mi Calm Calm - N/A   Clear
10:55 AM 48.2 °F - 33.8 °F 58% 30.33 in 10.0 mi Calm Calm - N/A   Clear
11:15 AM 50.0 °F - 33.8 °F 54% 30.33 in 10.0 mi Calm Calm - N/A   Clear
11:35 AM 50.0 °F - 32.0 °F 50% 30.32 in 10.0 mi Calm Calm - N/A   Clear
11:55 AM 53.6 °F - 32.0 °F 44% 30.31 in 10.0 mi Calm Calm - N/A   Clear
12:15 PM 53.6 °F - 32.0 °F 44% 30.30 in 10.0 mi Calm Calm - N/A   Clear
12:35 PM 55.4 °F - 32.0 °F 41% 30.28 in 10.0 mi SW 3.5 mph - N/A   Clear
12:55 PM 55.4 °F - 32.0 °F 41% 30.28 in 10.0 mi SSW 3.5 mph - N/A   Clear
1:15 PM 57.2 °F - 32.0 °F 38% 30.27 in 10.0 mi SSE 5.8 mph - N/A   Clear
1:35 PM 57.2 °F - 32.0 °F 38% 30.26 in 10.0 mi Calm Calm - N/A   Clear
1:55 PM 59.0 °F - 32.0 °F 36% 30.25 in 10.0 mi SW 4.6 mph - N/A   Clear
2:15 PM 59.0 °F - 32.0 °F 36% 30.24 in 10.0 mi West 4.6 mph - N/A   Clear
2:35 PM 59.0 °F - 32.0 °F 36% 30.24 in 10.0 mi Calm Calm - N/A   Clear
2:55 PM 60.8 °F - 32.0 °F 34% 30.23 in 10.0 mi Calm Calm - N/A   Clear
3:15 PM 60.8 °F - 32.0 °F 34% 30.23 in 10.0 mi West 3.5 mph - N/A   Clear
3:35 PM 60.8 °F - 32.0 °F 34% 30.24 in 10.0 mi Calm Calm - N/A   Clear
3:55 PM 60.8 °F - 32.0 °F 34% 30.24 in 10.0 mi West 3.5 mph - N/A   Clear
4:15 PM 60.8 °F - 32.0 °F 34% 30.23 in 10.0 mi West 3.5 mph - N/A   Clear
4:35 PM 59.0 °F - 32.0 °F 36% 30.23 in 10.0 mi Calm Calm - N/A   Clear
4:55 PM 59.0 °F - 32.0 °F 36% 30.23 in 10.0 mi Calm Calm - N/A   Clear
5:15 PM 57.2 °F - 37.4 °F 48% 30.23 in 10.0 mi Calm Calm - N/A   Clear
5:35 PM 55.4 °F - 37.4 °F 51% 30.23 in 10.0 mi Calm Calm - N/A   Unknown
5:55 PM 50.0 °F - 37.4 °F 62% 30.24 in 10.0 mi Calm Calm - N/A   Unknown
6:15 PM 46.4 °F - 37.4 °F 71% 30.24 in 10.0 mi Calm Calm - N/A   Unknown
6:35 PM 46.4 °F - 35.6 °F 66% 30.25 in 10.0 mi Calm Calm - N/A   Unknown
6:55 PM 44.6 °F - 37.4 °F 76% 30.25 in 10.0 mi Calm Calm - N/A   Unknown
7:15 PM 41.0 °F 39.0 °F 35.6 °F 81% 30.25 in 10.0 mi NNE 3.5 mph - N/A   Unknown
7:35 PM 41.0 °F - 35.6 °F 81% 30.25 in 10.0 mi Calm Calm - N/A   Unknown
7:55 PM 41.0 °F - 35.6 °F 81% 30.25 in 10.0 mi Calm Calm - N/A   Unknown
8:15 PM 39.2 °F - 35.6 °F 87% 30.25 in 10.0 mi Calm Calm - N/A   Unknown
8:55 PM 37.4 °F - 33.8 °F 87% 30.26 in 10.0 mi Calm Calm - N/A   Unknown
9:15 PM 37.4 °F - 33.8 °F 87% 30.27 in 10.0 mi Calm Calm - N/A   Unknown
9:35 PM 37.4 °F - 35.6 °F 93% 30.27 in 10.0 mi Calm Calm - N/A   Unknown
9:55 PM 35.6 °F - 32.0 °F 87% 30.27 in 10.0 mi Calm Calm - N/A   Unknown
10:35 PM 35.6 °F - 32.0 °F 87% 30.28 in 10.0 mi Calm Calm - N/A   Unknown
10:55 PM 35.6 °F - 32.0 °F 87% 30.28 in 10.0 mi Calm Calm - N/A   Unknown
11:15 PM 33.8 °F - 32.0 °F 93% 30.28 in 10.0 mi Calm Calm - N/A   Unknown
11:55 PM 33.8 °F - 32.0 °F 93% 30.29 in 10.0 mi Calm Calm - N/A   Unknown